Showing default

MSU ALTAIR, 61779

Orbit data source: Space-Track

MSU ALTAIR, 61779 is a payload satellite owned by MGU (CIS) in SSO that was launched on Mon, 04 Nov 2024 UTC via a SOYUZ-2-1B launch vehicle from the Vostochny Cosmodrome (VOSTO). Payload-class satellites include a variety of spacecraft equipped with specific instruments for various scientific and technological missions. These include communications satellites like Starlink; space stations such as the ISS; scientific satellites like the Hubble; Earth observation satellites from companies like Planet Labs, Umbra, and HawkEye 360; GPS; miniature CubeSats for education and research; and military/defense satellites.

Loading next visibility...
Identifier
61779, 2024-199AW
Orbit
SSO
Country
Flag of CISCIS
Related business
Manufacturer
NILAKT DOSAAF
Mission
Operational Amateur Science
Bus & Motor
CUBESAT 6U, Unknown motor
Mass
10 kg wet, 10 kg dry
Launch date (UTC)
2024-11-04 (1 year ago)
Launch vehicle
SOYUZ-2-1B
Launch site
Vostochny Cosmodrome (VOSTO)
Object type
Payload
Rocket body
Debris
Shape & HBR
Box, 0.1 m
Radar Cross Section
0.080 m², Medium (>0.1 m² and < 1m²)

Expand to show TLE details & history
Last TLE update: 10 hours ago

TLE from 10 hours ago
0 MSU ALTAIR
1 61779U 24199AW  26061.79117476  .00014861  00000-0  44122-3 0  9998
2 61779  97.3196 291.9023 0012740 335.1886  24.8743 15.34809569120787
Epoch: 2026-03-02T18:59Z
TLE epoch observation values (Epoch: 2026-03-02T18:59:17.499Z)
Latitude
-0.00004°
Longitude
-153.50013°
Altitude
456.694 km
Speed
7.643 km/s
True Right ascension
19h 27m 36s
True Declination
0° 00' 00"
Sunlit
Object was in daylight at epoch
Visualization orbit readout
Latitude
Unknown
Longitude
Unknown
Altitude
Unknown
Speed
Unknown
Apparent Right ascension
Unknown
Apparent Declination
Unknown
Sunlit
N/A
Visualization observer readout
Local Sidereal Time
08:58:49
Azimuth
Unknown
Elevation
Unknown
Doppler factor
Unknown
Orbital elements
Apogee altitude
467.138 km
Perigee altitude
449.719 km
Semi-major axis
6,836.566 km
Eccentricity
0.00127
Inclination
97.3196°
RAAN
291.9023°
Arg. of periapsis
335.1886°
True anomaly
24.9358°
Mean anomaly
24.8743°
Eccentric anomaly
24.90504°
Mean motion
3.8396 °/min
Orbital period
93.76 mins
BSTAR
0.00044122
Loading maneuver chart data...
Computing Atmospheric mass density...
Loading historical data...
Loading historical data...
Loading historical data...
Loading historical data...
Loading historical data...
Loading historical data...
Loading historical data...

Documentation

Showing up to 5 results
|